Temperature
21 20 20 20 20 20 20 21 21 21 22 22 22 21 20 19 18 17 16 16 15 15 15 15 15 15 15 15 15 15 15 15 15 15 15 15 14 14 14 14 14 14 14 14
20 20 20 20 20 20 20 20 21 21 21 22 21 20 19 18 17 17 16 16 15 15 15 15 15 15 15 15 15 15 15 15 15 15 15 15 14 14 14 14 14 14 14 14
19 20 19 19 21 20 20 20 20 20 21 21 20 20 19 18 17 17 16 15 15 15 15 15 15 15 15 15 15 15 15 15 15 15 14 14 14 14 14 14 14 14 14 14
19 19 18 21 21 20 20 20 20 20 20 20 20 19 18 17 17 17 16 15 15 15 15 15 15 15 15 15 15 15 15 14 14 14 14 14 14 14 14 14 14 14 14 14
18 18 19 20 20 19 19 20 20 20 20 19 18 18 18 17 16 16 15 15 15 14 14 14 15 15 14 14 14 14 14 14 14 14 14 14 14 14 14 14 14 14 13 13
17 17 18 19 19 19 19 19 19 19 19 18 18 19 19 16 15 15 15 14 14 14 14 14 14 14 14 14 14 14 14 14 14 14 14 14 14 14 14 14 13 13 13 13
17 17 18 19 17 18 18 19 18 18 18 17 18 19 17 16 15 15 14 14 14 14 14 14 14 14 14 14 14 14 14 14 14 13 14 14 14 14 14 13 13 13 13 13
17 17 17 17 17 18 18 17 17 17 17 16 16 16 15 15 15 15 14 14 14 14 14 14 14 14 14 14 14 14 14 13 13 13 13 13 13 13 13 13 13 13 13 13
17 17 17 16 16 16 15 16 16 16 15 15 15 15 15 14 14 14 14 14 14 14 14 14 13 13 13 13 13 13 13 13 13 13 13 13 13 13 13 13 13 12 12 12
16 17 16 15 15 14 14 15 15 15 14 14 14 15 14 14 14 14 14 14 14 13 13 13 13 13 13 13 13 13 13 13 13 13 13 13 13 13 13 13 12 12 12 12
16 16 15 14 14 14 14 14 14 14 14 14 14 14 14 14 14 14 14 14 13 13 13 13 13 13 13 13 13 13 13 13 13 13 13 13 13 13 12 12 12 12 12 12
15 16 16 15 14 13 13 13 14 14 14 14 14 14 14 14 14 14 14 14 13 13 13 13 13 13 13 13 13 13 13 12 12 12 13 13 12 12 12 12 12 12 12 12
14 14 13 13 13 13 13 13 13 13 13 13 13 13 13 13 13 13 13 13 13 13 13 13 13 13 13 13 13 12 12 12 12 12 12 12 12 12 12 12 12 12 12 12
12 12 13 13 13 13 13 13 13 13 13 13 13 13 13 13 13 13 13 13 13 13 13 12 13 13 13 13 12 12 12 12 12 12 12 12 12 12 11 11 11 11 11 11
12 12 12 12 12 12 12 12 12 12 13 13 13 13 13 13 13 13 13 13 13 12 12 12 13 13 13 12 12 12 12 12 12 12 12 12 12 11 11 11 11 11 11 11
11 11 11 11 12 12 12 12 12 12 12 12 12 12 12 12 12 12 13 13 12 12 12 12 12 12 12 12 12 12 12 12 12 11 11 11 11 11 11 11 11 11 11 11
11 11 11 11 11 11 11 11 12 12 12 12 12 12 12 12 12 12 12 12 12 12 12 12 12 12 12 12 12 11 11 11 11 11 11 11 11 11 11 11 11 11 11 11
10 11 11 11 11 11 11 11 11 11 11 11 11 11 12 12 12 12 12 12 12 11 12 12 12 12 12 11 11 11 11 11 11 11 11 11 11 11 10 10 10 10 10 10
10 10 10 10 10 10 10 10 11 11 11 11 11 11 11 11 11 11 11 11 11 11 11 11 11 11 11 11 11 11 11 11 11 11 11 11 10 10 10 10 10 10 10 10
9 9 9 10 10 10 10 10 10 10 10 10 11 11 11 11 11 11 11 11 11 11 11 11 11 11 11 11 10 10 10 10 10 10 10 10 10 10 10 10 10 10 10 10
9 9 9 9 9 9 9 9 9 9 10 10 10 10 10 10 10 10 10 10 11 11 11 11 10 10 10 10 10 10 10 10 10 10 10 10 10 10 10 10 10 9 9 9
8 8 8 8 9 9 9 9 9 9 9 9 10 10 10 10 10 10 10 10 10 10 10 10 10 10 10 10 10 10 10 10 10 10 10 10 10 10 10 9 9 9 9 9
8 8 8 8 8 8 9 9 9 9 9 9 9 9 9 9 9 9 9 9 9 9 9 9 10 10 10 9 9 9 9 9 9 10 10 10 10 10 9 9 9 9 9 9
7 7 7 8 8 8 8 8 8 8 8 8 8 9 9 8 8 8 8 9 9 9 9 9 9 9 9 9 9 9 9 9 9 9 9 9 9 9 9 9 9 9 9 9
7 7 7 7 7 7 7 8 8 8 8 8 8 8 8 8 8 8 8 8 8 8 8 8 8 9 9 8 8 9 9 9 9 9 9 9 9 9 9 9 8 8 8 8
6 6 7 7 7 7 7 7 7 7 7 7 7 7 7 7 7 7 7 7 8 8 8 8 8 8 8 8 8 8 8 8 8 8 9 9 8 8 8 8 8 8 8 8
6 6 6 6 6 6 6 6 6 6 7 7 7 7 7 7 7 7 7 7 7 7 7 7 7 7 7 7 7 8 8 8 8 8 8 8 8 8 8 8 8 8 8 7
Wind_Speed
9 7 6 9 10 11 13 13 13 13 12 11 8 6 5 3 2 1 1 1 2 2 2 2 4 5 5 6 6 6 7 7 7 7 6 6 5 5 5 5 5 5 5 5
9 8 9 11 13 13 14 14 15 15 14 9 6 4 4 3 3 2 2 2 2 2 2 2 4 5 5 6 6 6 7 7 6 6 6 6 6 5 5 4 5 4 5 5
9 7 8 12 12 12 11 11 12 13 10 6 5 5 5 4 4 3 2 2 2 2 2 3 4 4 5 6 5 6 6 6 7 7 7 6 6 6 5 5 4 4 4 4
7 7 11 6 2 6 9 9 9 9 7 6 6 5 4 3 3 3 2 2 2 2 2 2 3 4 5 6 6 6 6 6 6 7 6 6 6 5 5 5 5 4 4 4
6 9 11 8 5 5 7 9 7 8 7 6 4 5 4 2 2 2 2 2 2 2 3 3 3 3 5 6 6 7 7 6 7 7 7 7 7 6 5 5 5 4 4 5
8 9 8 4 2 3 6 8 4 5 6 5 4 6 3 2 3 2 2 2 2 2 2 2 3 3 5 5 6 7 7 6 6 7 7 7 7 6 5 5 5 4 4 5
12 11 8 4 2 3 7 4 2 4 4 4 5 5 2 2 3 3 3 2 2 3 3 3 3 4 4 5 5 5 6 6 6 7 7 7 6 6 6 5 5 4 5 4
9 10 9 0 2 4 4 4 3 4 4 5 5 4 3 3 3 3 2 2 3 3 3 3 3 4 4 4 4 5 5 6 6 6 6 5 6 5 5 6 6 5 5 4
7 6 2 1 2 4 5 5 5 5 6 6 6 5 4 4 4 3 3 3 4 4 3 3 4 4 4 4 4 5 6 6 6 6 5 6 6 6 6 5 5 5 4 4
7 8 6 6 6 6 6 7 7 7 6 5 6 6 5 5 4 4 4 4 4 4 4 4 4 4 4 4 5 6 7 7 6 6 6 6 5 5 5 6 5 5 5 5
11 10 8 7 7 7 7 7 7 6 6 6 6 6 6 6 5 4 4 4 5 5 5 5 4 4 4 4 5 6 6 6 7 6 6 5 5 4 6 6 6 6 6 6
10 8 8 8 8 8 8 8 7 7 7 7 7 7 6 6 5 5 5 5 5 5 5 5 5 5 4 5 6 6 6 6 5 5 5 5 5 4 1 2 3 3 3 4
9 8 9 10 9 8 8 8 8 8 7 7 7 6 6 5 5 5 5 6 6 6 6 6 5 5 5 5 6 6 6 6 5 5 5 6 6 6 5 3 3 4 5 5
9 8 9 8 8 8 8 8 8 7 7 6 6 5 5 5 5 6 6 6 6 6 6 6 6 6 5 6 6 6 6 6 5 5 6 6 6 6 6 6 5 4 4 6
9 9 9 9 9 9 8 8 8 7 7 6 5 5 5 5 6 6 6 6 6 6 6 6 6 6 5 6 7 7 6 5 5 5 6 6 6 6 6 7 6 5 4 5
8 9 9 9 9 9 9 9 8 8 8 7 6 6 6 6 6 5 5 6 7 7 7 7 7 6 6 7 7 6 6 6 6 5 5 5 6 6 6 6 7 6 6 6
8 9 9 9 10 10 10 10 9 9 8 8 7 6 6 5 5 5 5 6 7 7 6 7 6 6 6 7 7 6 5 6 7 6 6 6 6 6 6 7 7 7 7 7
9 10 10 10 10 10 10 9 9 8 8 8 6 6 6 6 6 6 5 5 5 6 6 6 5 6 7 7 6 5 5 6 7 7 6 6 6 6 6 7 8 8 6 7
8 9 9 9 9 9 9 9 8 7 7 6 6 6 6 6 6 5 5 5 5 6 5 5 5 6 7 7 6 5 6 6 6 6 6 6 7 7 7 7 7 7 7 7
7 8 8 8 8 7 7 7 7 6 6 5 5 5 6 6 6 5 5 5 5 5 5 5 6 7 7 7 6 6 6 7 7 6 6 6 7 7 7 7 7 7 7 7
7 7 6 6 6 6 6 6 5 5 5 5 5 5 6 5 5 5 5 5 5 4 4 5 6 5 5 5 6 6 6 7 7 6 7 7 7 7 7 7 7 7 7 7
6 6 5 5 5 5 5 4 4 4 4 4 4 5 5 5 5 5 5 5 4 3 3 4 5 4 5 5 6 6 6 7 6 6 6 7 7 7 7 7 7 6 7 7
5 5 5 5 4 5 4 4 4 3 3 4 4 4 4 4 4 4 4 3 3 3 4 4 4 4 5 5 5 6 7 7 7 7 7 7 7 7 7 7 6 7 7 7
4 4 4 4 4 3 3 3 3 3 3 3 3 3 3 3 3 3 3 3 3 4 4 3 4 5 6 5 5 6 6 6 6 6 7 7 6 6 6 6 6 6 6 7
4 4 4 3 3 3 3 3 3 2 2 2 3 3 2 2 3 3 3 3 3 3 3 3 4 5 5 5 5 6 6 5 5 6 6 6 6 6 6 6 6 6 6 6
4 3 3 4 3 3 2 2 2 2 2 2 2 2 2 2 3 2 2 2 3 2 2 2 3 4 4 4 5 5 5 4 5 5 5 5 5 5 5 5 6 5 5 5
3 3 2 2 2 2 2 2 2 3 3 2 2 3 3 2 2 2 2 2 2 2 2 2 2 2 2 3 3 4 3 4 4 5 4 4 4 4 5 5 4 4 4 4
Wind_Direction
258 265 259 258 252 241 242 252 262 269 273 280 287 289 280 261 249 222 222 208 194 201 210 202 182 178 178 181 185 184 184 185 189 192 188 184 181 184 184 185 191 188 179 180
251 249 254 261 257 249 249 254 257 265 270 285 286 276 264 243 221 222 224 215 214 215 210 216 195 187 183 186 187 187 188 185 182 182 178 177 178 172 168 173 177 173 179 178
256 248 261 257 252 245 242 246 251 259 272 285 273 266 264 249 226 220 216 226 229 229 219 218 210 198 191 188 184 186 188 183 178 177 174 179 176 167 166 171 171 172 176 177
259 253 251 264 267 245 246 252 254 261 274 273 277 275 264 246 226 229 234 234 235 238 235 228 208 198 191 184 186 188 190 186 181 177 177 177 175 174 179 174 172 181 178 178
244 253 264 261 244 232 243 257 256 258 270 279 285 257 235 223 244 246 238 236 230 238 233 217 191 188 186 185 188 192 194 191 182 180 182 180 178 178 181 177 179 184 182 177
238 250 256 270 282 254 249 253 259 263 272 268 254 254 251 211 243 253 254 242 239 235 215 192 178 183 186 189 191 196 196 194 185 182 185 187 183 179 175 178 184 181 180 185
238 247 258 305 321 216 230 273 316 270 274 257 252 281 299 239 240 240 241 242 230 200 196 187 182 188 194 196 200 200 194 191 187 184 188 186 179 176 173 175 177 179 178 180
233 242 249 44 184 227 279 339 317 290 281 270 277 300 277 246 238 232 230 228 201 190 192 188 190 196 202 207 205 198 191 190 188 185 183 178 173 174 178 174 174 176 178 174
236 248 303 208 260 300 314 303 305 296 289 278 274 275 268 252 243 232 225 210 188 191 193 195 197 204 208 209 199 195 194 192 192 188 183 180 178 176 180 180 183 184 185 185
252 255 264 267 276 283 287 294 301 293 284 278 278 273 266 255 245 237 232 213 194 192 197 202 204 214 215 205 196 197 195 193 192 189 186 187 186 186 186 187 188 189 190 193
255 264 273 266 272 281 292 298 300 297 285 277 277 270 262 254 244 240 236 215 203 205 208 212 210 217 216 203 199 202 199 197 194 190 187 191 192 199 201 199 197 196 198 198
255 264 266 276 283 283 288 292 296 297 294 287 277 269 263 257 249 239 232 215 212 216 217 219 215 216 214 209 204 204 202 198 197 191 188 190 190 191 186 213 167 187 191 201
267 277 276 283 287 281 280 288 292 289 286 284 279 268 260 253 242 234 230 218 219 219 221 222 218 217 215 212 207 206 207 203 199 197 193 193 194 196 196 174 150 179 181 184
265 270 273 275 282 283 284 288 288 285 283 279 275 265 255 250 239 229 227 224 222 220 221 221 219 217 213 208 206 209 210 206 202 201 202 200 200 202 203 197 194 198 188 180
257 261 272 282 284 284 286 283 280 280 281 279 270 259 252 248 240 232 230 225 220 219 220 220 220 220 213 205 206 210 210 209 205 205 204 203 202 202 204 203 202 197 187 180
259 265 270 273 277 280 280 275 271 272 273 272 266 259 254 252 245 237 230 220 218 219 220 221 224 221 212 205 206 211 211 202 203 206 204 203 202 203 205 205 204 201 199 193
255 262 268 272 274 273 271 271 270 269 268 265 261 258 253 246 237 231 228 225 230 231 226 224 223 216 210 207 208 212 212 202 193 204 207 205 205 206 208 210 210 209 208 195
255 260 263 266 269 272 274 275 272 268 265 262 258 252 244 235 233 232 228 225 230 235 233 227 219 215 211 210 211 214 213 210 205 206 208 208 210 209 210 214 215 215 211 192
267 268 268 269 269 270 273 275 273 271 267 255 247 245 245 241 236 232 226 222 224 232 235 227 216 213 211 210 211 213 214 214 212 209 210 206 210 213 213 215 215 213 208 200
276 277 274 273 274 273 273 274 273 270 266 259 250 246 247 244 237 229 224 230 235 240 238 228 221 217 211 206 205 213 212 213 212 210 210 214 216 214 215 216 215 213 211 210
278 281 279 277 276 276 276 273 269 265 266 261 255 254 252 247 237 228 224 235 245 240 232 219 218 215 212 207 208 216 214 214 213 213 214 217 218 215 215 215 215 216 216 216
282 282 281 281 280 282 281 276 270 269 271 268 265 260 255 248 240 237 237 244 250 233 226 224 221 211 207 207 214 217 217 217 216 216 219 221 218 216 216 218 218 219 219 219
282 284 284 283 280 281 285 285 280 275 271 269 267 265 262 258 248 243 248 256 249 241 238 234 226 205 209 214 218 218 219 220 218 219 222 224 221 219 218 219 221 222 220 217
287 287 286 285 283 281 282 286 286 282 275 272 275 276 271 263 260 258 261 251 252 243 238 225 210 214 221 222 222 222 223 221 221 223 225 224 222 221 220 219 220 221 220 217
279 277 277 279 276 275 276 280 284 289 289 289 296 297 286 272 269 264 262 250 244 238 240 221 214 221 224 228 226 227 226 224 225 227 226 221 221 221 221 221 220 220 219 217
281 278 274 269 271 276 272 264 264 272 280 292 300 304 305 300 288 278 268 249 242 242 243 231 221 221 229 230 230 230 228 227 224 224 222 218 219 219 220 220 220 219 218 215
284 281 274 272 276 274 269 261 261 267 267 264 281 294 300 304 296 290 281 259 244 237 237 237 235 238 245 240 235 231 232 236 233 224 217 216 216 217 216 216 216 213 209 205
Height
1515 1515 1516 1516 1516 1517 1517 1513 1514 1509 1507 1505 1505 1507 1509 1510 1510 1510 1511 1511 1511 1512 1512 1513 1514 1515 1517 1519 1521 1523 1524 1527 1529 1531 1533 1534 1536 1538 1540 1541 1543 1544 1545 1546
1516 1515 1515 1514 1512 1512 1512 1510 1509 1507 1505 1503 1505 1507 1507 1508 1508 1509 1509 1510 1510 1510 1511 1511 1512 1514 1515 1517 1519 1521 1523 1524 1526 1529 1530 1532 1534 1536 1538 1539 1541 1542 1543 1544
1515 1512 1514 1512 1504 1505 1506 1504 1505 1504 1501 1502 1503 1504 1505 1505 1506 1507 1508 1508 1508 1509 1509 1510 1511 1512 1513 1514 1517 1519 1520 1522 1524 1526 1528 1530 1532 1534 1535 1537 1539 1540 1541 1543
1514 1516 1520 1502 1499 1501 1502 1502 1501 1501 1501 1501 1502 1503 1504 1504 1504 1505 1506 1506 1506 1507 1507 1508 1509 1510 1511 1513 1514 1516 1518 1520 1522 1524 1526 1528 1530 1531 1533 1535 1536 1538 1539 1540
1515 1514 1506 1499 1499 1501 1501 1499 1499 1499 1499 1500 1501 1501 1500 1501 1502 1503 1504 1504 1505 1505 1506 1506 1507 1508 1509 1511 1512 1514 1515 1517 1519 1521 1523 1525 1527 1529 1530 1532 1534 1536 1537 1538
1513 1515 1510 1499 1498 1499 1501 1498 1497 1497 1498 1499 1499 1497 1497 1500 1500 1501 1502 1502 1502 1503 1503 1504 1505 1506 1507 1509 1510 1511 1513 1515 1517 1519 1521 1522 1524 1526 1528 1530 1532 1533 1534 1536
1511 1510 1501 1498 1499 1500 1503 1497 1496 1497 1497 1498 1497 1497 1498 1498 1498 1499 1499 1499 1499 1500 1501 1502 1503 1504 1505 1507 1508 1509 1510 1512 1514 1516 1518 1520 1522 1523 1525 1527 1529 1531 1532 1533
1507 1508 1504 1499 1500 1499 1497 1497 1496 1496 1496 1496 1496 1496 1496 1496 1496 1496 1496 1497 1497 1498 1499 1499 1501 1502 1503 1504 1506 1507 1508 1510 1512 1514 1515 1517 1519 1521 1523 1524 1526 1527 1529 1530
1501 1500 1498 1499 1499 1499 1499 1497 1496 1495 1495 1495 1494 1494 1494 1494 1494 1494 1494 1494 1495 1495 1496 1497 1498 1500 1501 1502 1503 1504 1506 1507 1509 1511 1512 1514 1516 1517 1519 1521 1523 1524 1526 1527
1499 1496 1497 1497 1497 1497 1497 1496 1494 1493 1493 1492 1491 1490 1491 1491 1491 1491 1491 1492 1492 1493 1494 1495 1496 1497 1498 1499 1500 1502 1503 1505 1506 1508 1509 1511 1513 1515 1516 1518 1519 1521 1523 1524
1495 1494 1495 1494 1494 1494 1493 1492 1491 1490 1490 1489 1488 1487 1487 1487 1487 1487 1488 1489 1489 1490 1491 1491 1493 1494 1495 1496 1497 1499 1500 1502 1503 1505 1506 1508 1509 1511 1513 1514 1516 1517 1519 1521
1491 1491 1492 1491 1491 1490 1490 1489 1488 1487 1485 1484 1484 1484 1484 1484 1484 1484 1485 1485 1486 1487 1488 1489 1489 1490 1492 1493 1494 1496 1498 1499 1500 1501 1503 1504 1506 1507 1509 1511 1512 1514 1516 1517
1490 1490 1490 1488 1487 1487 1486 1485 1484 1483 1482 1481 1480 1481 1480 1480 1480 1481 1481 1482 1483 1484 1484 1485 1486 1487 1488 1490 1491 1492 1494 1495 1496 1497 1499 1500 1502 1503 1505 1507 1508 1510 1512 1513
1488 1487 1486 1485 1484 1483 1483 1482 1481 1480 1479 1478 1477 1477 1477 1477 1477 1477 1478 1479 1479 1480 1481 1481 1482 1483 1484 1486 1487 1489 1490 1491 1492 1493 1495 1496 1498 1500 1501 1503 1504 1505 1507 1509
1483 1484 1483 1481 1480 1479 1478 1478 1477 1476 1475 1474 1474 1473 1473 1473 1473 1474 1474 1475 1476 1477 1477 1478 1478 1479 1481 1482 1484 1485 1486 1487 1488 1490 1491 1492 1494 1496 1497 1499 1500 1501 1502 1504
1479 1479 1478 1477 1476 1475 1474 1474 1473 1472 1471 1470 1470 1469 1469 1469 1470 1470 1471 1471 1472 1472 1473 1474 1474 1476 1477 1478 1480 1481 1482 1483 1484 1486 1487 1488 1489 1491 1493 1494 1496 1497 1498 1499
1475 1474 1473 1473 1472 1471 1470 1469 1468 1467 1466 1466 1466 1466 1466 1466 1466 1466 1467 1467 1468 1469 1469 1470 1471 1472 1473 1474 1476 1477 1478 1479 1480 1482 1483 1484 1485 1487 1488 1489 1491 1492 1493 1495
1471 1470 1470 1469 1467 1466 1465 1464 1463 1462 1462 1461 1462 1462 1462 1462 1462 1463 1463 1464 1464 1465 1465 1466 1467 1468 1469 1470 1472 1473 1474 1475 1476 1477 1478 1479 1481 1482 1483 1485 1486 1487 1488 1489
1466 1465 1464 1463 1463 1462 1460 1459 1459 1458 1458 1457 1457 1457 1458 1458 1459 1459 1459 1460 1460 1460 1461 1462 1463 1464 1465 1466 1467 1468 1469 1471 1472 1473 1474 1475 1476 1477 1479 1480 1481 1482 1483 1484
1461 1460 1459 1458 1457 1457 1456 1455 1454 1454 1453 1453 1453 1453 1454 1454 1455 1455 1455 1455 1456 1456 1457 1458 1459 1460 1461 1462 1463 1464 1465 1466 1467 1468 1469 1471 1472 1472 1473 1475 1475 1476 1477 1478
1456 1455 1454 1453 1453 1452 1452 1451 1451 1450 1450 1450 1450 1450 1450 1450 1451 1451 1451 1451 1452 1452 1453 1453 1454 1455 1456 1457 1458 1459 1460 1461 1462 1463 1464 1466 1467 1468 1469 1469 1470 1471 1472 1473
1452 1451 1450 1449 1449 1448 1448 1448 1447 1447 1447 1446 1447 1447 1447 1446 1447 1447 1447 1448 1448 1448 1448 1449 1450 1451 1451 1452 1453 1454 1455 1456 1457 1458 1459 1460 1461 1462 1463 1464 1465 1466 1466 1467
1448 1448 1447 1446 1446 1445 1445 1444 1444 1444 1443 1443 1443 1443 1443 1443 1443 1443 1443 1443 1443 1443 1444 1445 1445 1446 1447 1448 1449 1449 1450 1451 1452 1453 1454 1455 1456 1457 1458 1458 1459 1460 1461 1462
1445 1444 1444 1443 1443 1442 1442 1441 1441 1441 1441 1440 1440 1440 1439 1439 1439 1439 1439 1439 1439 1439 1440 1440 1441 1441 1442 1443 1444 1444 1445 1446 1447 1448 1449 1450 1451 1451 1452 1453 1453 1454 1455 1456
1442 1441 1441 1440 1439 1439 1439 1439 1438 1438 1438 1437 1437 1436 1436 1436 1435 1435 1435 1435 1435 1435 1435 1436 1436 1437 1437 1438 1439 1439 1440 1441 1441 1442 1443 1444 1445 1446 1446 1447 1448 1449 1449 1450
1438 1438 1437 1437 1437 1436 1436 1436 1435 1434 1434 1434 1433 1433 1433 1433 1432 1432 1431 1431 1431 1431 1431 1432 1432 1432 1433 1433 1434 1435 1435 1436 1437 1437 1438 1439 1439 1440 1441 1441 1442 1443 1444 1444
1435 1435 1434 1434 1433 1433 1433 1432 1432 1432 1431 1431 1430 1430 1430 1429 1429 1428 1428 1428 1428 1428 1428 1428 1428 1429 1429 1429 1430 1430 1431 1431 1432 1432 1433 1434 1434 1435 1436 1436 1437 1437 1438 1439